Regional Weather Roundup
Issued by NWS Cleveland, OH

Home | Current Version | Previous Version | Text Only | Print | Product List | Glossary Off
Versions: 1 2 3 4 5 6 7 8 9 10 11 12 13 14 15 16 17 18 19 20 21 22 23 24 25 26 27 28 29 30 31 32 33 34 35 36 37 38 39 40 41 42 43 44 45 46 47 48 49 50

000
ASUS41 KCLE 020602
RWRCLE
OHIO REGIONAL WEATHER ROUNDUP
NATIONAL WEATHER SERVICE CLEVELAND, OH
200 AM EDT THU JUL 02 2015

NOTE: "FAIR" INDICATES FEW OR NO CLOUDS BELOW 12,000 FEET WITH NO
SIGNIFICANT WEATHER AND/OR OBSTRUCTIONS TO VISIBILITY.

OHZ001>008-015>018-024>027-034-035-043-044-020700-
   NORTHWEST OHIO

CITY           SKY/WX    TMP DP  RH WIND       PRES   REMARKS
DEFIANCE       CLOUDY    61  55  81 N3        29.96S
FINDLAY        CLOUDY    64  59  83 CALM      29.94S
TOLEDO EXPRESS CLOUDY    62  55  77 NE6       29.95S
TOLEDO EXEC    CLOUDY    66  58  75 NE6       29.96S
LIMA           PTCLDY    62  57  83 N5        29.95S
$$

OHZ009>014-019>023-028>033-038-089-020700-
   NORTHEAST OHIO

CITY           SKY/WX    TMP DP  RH WIND       PRES   REMARKS
CLE-HOPKINS    CLOUDY    65  61  87 N7        29.96S
CLE-LAKEFRONT  CLOUDY    66  61  84 NE13      29.94R
CUY CO. ARPT   NOT AVBL
LORAIN-ELYRIA  CLOUDY    63  60  90 NE5       29.95S
ASHTABULA      MOCLDY    58  57  97 CALM      29.96R
AKRON-CANTON   MOCLDY    63  58  83 CALM      29.95S
WOOSTER        LGT RAIN  61  59  93 CALM      29.96S
MANSFIELD      CLOUDY    62  59  90 CALM      29.96R
YOUNGSTOWN     CLOUDY    60  58  92 CALM      29.95S
$$

OHZ042-051>053-060>062-070>072-077>081-020700-
  SOUTHWEST OHIO

CITY           SKY/WX    TMP DP  RH WIND       PRES   REMARKS
CINC-COVINGTON CLOUDY    67  65  93 S3        29.92F FOG
CINC-LUNKEN    MOCLDY    66  65  96 CALM      29.92F
HAMILTON       LGT RAIN  69  67  93 CALM      29.92F
DAYTON         MOCLDY    67  60  78 N7        29.94F
WRIGHT-PAT AFB PTCLDY    65  63  93 N2        29.93F
DAYTON GENERAL CLOUDY    69  63  81 CALM      29.92F
WILMINGTON     MOCLDY    64  61  90 CALM      29.93F
$$

OHZ036-037-039>041-045>050-054>059-063>069-073>076-082>088-020700-
  CENTRAL AND SOUTHEAST OHIO

CITY           SKY/WX    TMP DP  RH WIND       PRES   REMARKS
COLUMBUS       MOCLDY    63  59  87 CALM      29.93S
OSU AIRPORT    CLEAR     61  59  93 CALM      29.94S
BOLTON FIELD   NOT AVBL
RICKENBACK AFB NOT AVBL
NEWARK         PTCLDY    59  58  96 CALM      29.94S FOG
MARION         MOCLDY    63  60  90 CALM      29.95S
LANCASTER      CLEAR     60  58  92 CALM      29.94S FOG
ZANESVILLE     NOT AVBL
NEW PHILLY     PTCLDY    58  58 100 CALM      29.95S FOG
$$


USA.gov is the U.S. government's official web portal to all federal, state and local government web resources and services.